Regional Weather Roundup
Issued by NWS Green Bay, WI

Home | Current Version | Previous Version | Text Only | Print | Product List | Glossary On
Versions: 1 2 3 4 5 6 7 8 9 10 11 12 13 14 15 16 17 18 19 20 21 22 23 24 25 26 27 28 29 30 31 32 33 34 35 36 37 38 39 40 41 42 43 44 45 46 47 48 49 50
000
ASUS43 KGRB 231911
RWRGRB

NORTH-CENTRAL AND NORTHEAST WISCONSIN REGIONAL WEATHER ROUNDUP
NATIONAL WEATHER SERVICE GREEN BAY WI
200 PM CDT WED AUG 23 2017

WIZ005-009-010>012-018-019-232000-
NORTH CENTRAL WISCONSIN

CITY           SKY/WX    TMP DP  RH WIND       PRES   REMARKS
IRONWOOD       MOSUNNY   60  45  57 NW15      30.09S
MANITOWISH WTR MOSUNNY   62  49  61 N12       30.06S
ARBOR VITAE    MOSUNNY   64  48  55 NW13G20   30.06S
EAGLE RIVER    PTSUNNY   64  46  52 N12G21    30.05S
LAND O LAKES   MOSUNNY   63  44  50 NW9G20    30.07S
RHINELANDER    MOSUNNY   65  46  50 W10G18    30.05F
PHILLIPS       MOSUNNY   65  49  56 N7        30.06F
ANTIGO         MOSUNNY   64  49  57 W13G18    30.04S
TOMAHAWK         N/A     64  46  52 NW12      30.06S
MERRILL        PTSUNNY   66  50  55 NW9       30.05S
$$

WIZ013-073-232000-
NORTHEAST WISCONSIN

CITY           SKY/WX    TMP DP  RH WIND       PRES   REMARKS
IRON MOUNTAIN  MOSUNNY   68  43  40 NW15G23   30.01R
MARINETTE      PTSUNNY   69  49  48 NW8       30.00S
OCONTO         PTSUNNY   69  49  49 NW7       30.00S
$$

WIZ017-030-035>037-045-232000-
CENTRAL WISCONSIN

CITY           SKY/WX    TMP DP  RH WIND       PRES   REMARKS
MEDFORD        MOSUNNY   65  49  54 NW9       30.06S
WAUSAU         MOSUNNY   70  47  43 NW12G21   30.03F
MOSINEE        MOSUNNY   70  48  46 NW13G21   30.06S
MARSHFIELD     PTSUNNY   66  48  52 NW12      30.05F
WISC RAPIDS    MOSUNNY   71  50  47 NW15      30.06F
STEVENS POINT  PTSUNNY   65  48  52 NW8       30.05S
WAUPACA        PTSUNNY   73  48  41 NW7G17    30.03S
SHAWANO        PTSUNNY   72  49  45 N7        30.01S
CLINTONVILLE   CLOUDY    70  46  43 N10G20    30.02S
WAUTOMA        PTSUNNY   72  50  45 NW12G20   30.04F
$$

WIZ038-039-048-051-232000-
FOX VALLEY

CITY           SKY/WX    TMP DP  RH WIND       PRES   REMARKS
NWS GREEN BAY  MOSUNNY   71  54  54 NW8       30.01S
APPLETON       PTSUNNY   70  45  40 NW12      30.02R
OSHKOSH        MOSUNNY   69  50  50 NW12      30.02F
FOND DU LAC    MOSUNNY   71  48  43 NW8G18    30.03S
$$

WIZ022-050-052-232000-
EAST CENTRAL WISCONSIN

CITY           SKY/WX    TMP DP  RH WIND       PRES   REMARKS
EPHRAIM        FAIR      66  47  51 N10G16    30.00R
WASHINGTON ISL CLOUDY    66  46  49 NW10      29.99S
STURGEON BAY   SUNNY     66  50  56 NW10      30.01F
MANITOWOC      PTSUNNY   70  52  52 NW8       30.02S
SHEBOYGAN      MOSUNNY   71  54  54 VRB5      30.02S
$$

LMZ563-521-522-541>543-232000-
LAKESHORE

STATION/POSITION TIME  TEMP    WIND        PRES    VSBY  WAVE
                       AIR SEA DIR/SP/G                  HT/PER
                 (UTC) (F)     (DEG/KT/KT) (MB)    (MI)  (FT/S)
SHEBOYGAN LKSHOR 1900   65      80/  5/  6 1016.4R
KEWAUNEE LKSHORE 1848   69     300/  8/ 11 1015.4R
NORTHPORT PIER   1840   65     330/ 10/ 14 1015.6S
N MID LAKE BUOY  1850   62 66  290/  8/ 12 1016.2R         2/ 4
S GREEN BAY BUOY 1900   67 70   10/  8/ 10 1015.9
SISTER BAY LKSHO 1903   70     340/ 13/ 15   N/A
MENOMINEE LKSHOR 1848   65     330/ 11/ 14 1015.5S
$$



USA.gov is the U.S. government's official web portal to all federal, state and local government web resources and services.